Location: Strawberry
(45.6646°N, 111.9596°W)
Time: 22:31:40
(UTC+00:00)

Explorer 11/Cluster Stage 4 - Pass Details

Date: 10 October 2022
Orbit: 466 x 1248 km, 28.8° (Epoch: 28 November)

Event Time Altitude Azimuth Distance (km) Brightness Sun altitude
Rises 15:42:50 0° 218° (SW) 3,853 10.1 19.4°
Reaches altitude 10° 15:46:34 10° 200° (SSW) 3,020 9.8 20.0°
Maximum altitude 15:51:09 17° 162° (SSE) 2,627 10.3 20.7°
Drops below altitude 10° 15:55:58 10° 126° (SE) 3,199 12.0 21.3°
Sets 16:00:05 0° 108° (ESE) 4,181 11.6 21.9°
